Dewpoint
68 66 66 66 65 64 63 64 58 58 57 54 53 55 56 61 60 60 61 62 61 62 59 58 57 58 57 54 54 55 60 60 58 54 55 66 69 69 69 69 68 69 69 69 72 75 75 76 76 75 76 76 76 75 76 76 76 76 75 75 75 75 75 75 75 75 75 76 76 76 76 76 76 76 75 75 74 74 74 73 73 75 75 76 76 75 75 75 75 75 75 75 75 75 74 74 74
65 65 66 66 66 66 59 62 58 56 56 52 55 59 56 59 62 58 58 62 58 60 57 56 57 58 60 55 55 58 58 59 60 62 65 65 69 69 68 69 68 68 68 69 70 71 73 75 76 76 76 76 77 77 77 76 76 76 76 76 75 76 75 75 75 75 76 75 76 76 76 76 75 75 75 75 75 75 73 74 74 75 75 76 75 75 75 75 75 75 74 74 75 75 74 74 74
65 64 64 65 67 66 63 63 56 54 54 53 57 61 59 57 57 59 61 61 59 58 56 56 58 58 57 55 54 56 57 59 61 62 63 66 66 69 69 67 70 69 67 69 68 70 73 75 76 76 76 76 77 77 76 76 76 76 76 76 76 76 76 75 75 75 75 75 76 76 76 76 75 75 75 75 75 75 75 75 75 75 75 75 75 75 75 75 75 74 74 74 74 75 75 74 74
65 65 63 64 60 63 64 59 57 57 53 58 57 58 60 58 58 62 63 59 59 57 56 55 56 56 56 57 57 57 57 58 61 62 63 64 66 67 67 67 69 66 67 67 67 69 73 76 76 76 76 76 76 76 76 76 76 76 76 76 76 75 75 75 75 75 76 75 75 75 75 75 75 75 75 75 75 75 75 75 74 74 75 75 75 75 75 75 75 75 75 74 75 75 74 75 75
64 65 64 62 63 62 62 60 58 58 52 58 54 63 61 58 60 63 63 57 58 57 56 56 54 61 60 57 56 57 58 60 61 61 61 64 65 66 67 67 66 65 66 66 67 69 74 77 76 76 76 76 76 76 76 76 75 76 76 76 75 75 76 75 75 76 75 75 75 75 75 75 75 75 75 75 75 75 76 75 75 75 75 75 75 75 75 75 75 74 75 74 75 75 75 75 75
67 63 66 67 65 68 63 59 55 53 53 57 54 58 62 62 63 63 60 57 57 56 58 56 59 58 57 58 58 56 58 59 59 60 62 63 64 65 66 66 64 64 64 66 69 71 74 76 76 76 76 76 76 75 75 76 76 76 75 75 76 76 76 76 75 75 75 75 75 75 75 75 75 75 76 75 75 76 76 76 76 75 75 75 74 75 74 75 75 75 74 75 75 75 74 75 75
64 63 65 65 67 65 60 57 55 58 56 64 58 62 62 61 63 62 57 56 56 56 57 56 57 57 58 59 59 60 62 60 59 61 63 63 64 65 65 65 65 64 64 66 68 70 74 76 76 76 76 76 76 75 76 76 76 77 76 75 76 76 75 75 75 75 75 75 75 75 75 75 75 75 75 75 75 76 76 75 75 75 75 75 75 74 75 75 75 75 75 75 75 75 74 74 75
65 63 63 62 61 62 58 58 59 62 53 64 63 62 63 64 59 58 57 57 55 56 56 56 56 58 60 60 59 58 59 60 61 63 62 63 64 64 64 64 64 63 63 67 70 74 78 76 76 76 76 76 76 76 76 76 76 76 76 75 75 75 75 74 75 76 76 76 75 75 75 75 75 75 75 75 75 76 76 75 75 75 74 75 75 75 75 75 75 74 75 75 75 74 75 75 74
64 63 66 63 59 60 58 57 59 62 60 60 61 61 64 61 58 60 59 58 58 56 55 56 57 57 60 58 57 60 59 61 63 64 63 64 63 63 63 63 62 62 63 67 71 73 74 76 76 76 76 76 76 76 76 76 76 76 76 75 74 75 74 75 75 75 75 75 75 75 75 75 75 75 75 75 75 76 75 75 75 75 74 74 75 75 75 75 75 75 74 75 75 75 75 75 74
64 66 64 61 60 57 59 54 58 60 61 59 57 61 61 59 60 61 60 58 59 57 58 61 61 62 60 57 58 59 59 62 63 62 63 63 62 62 62 62 62 62 64 67 69 72 74 77 76 76 76 76 76 76 76 76 75 75 74 74 75 75 75 75 75 75 76 75 75 75 75 75 75 75 75 75 76 76 75 75 75 75 75 74 75 75 75 75 75 75 75 75 75 75 75 74 74
62 64 65 62 57 58 54 52 50 56 57 62 60 61 63 62 62 62 61 60 58 60 59 57 59 59 59 61 60 61 61 62 62 62 62 62 62 62 61 63 62 62 64 65 67 71 74 75 77 76 76 76 77 76 76 75 75 75 75 74 75 75 75 75 74 75 75 75 76 76 75 75 75 75 75 75 75 75 75 75 75 75 75 74 75 75 75 75 75 75 74 75 74 74 74 74 73
62 62 64 60 57 60 56 55 57 59 57 59 58 62 61 60 61 60 61 58 55 55 61 60 60 61 61 60 61 61 61 61 62 62 62 62 61 61 61 61 60 61 63 64 68 71 73 76 76 77 76 76 76 76 75 75 75 75 74 75 75 75 75 75 75 75 76 76 76 76 75 75 75 76 75 75 75 75 75 75 75 75 75 75 75 75 75 75 75 75 75 75 75 74 74 74 73
63 62 63 60 58 60 57 56 54 57 56 59 59 59 61 59 59 61 59 56 57 55 58 66 59 60 60 60 62 61 60 61 62 63 62 62 61 61 61 60 61 60 62 66 67 70 72 75 75 76 76 76 76 76 75 75 75 74 74 74 75 75 75 75 75 76 76 76 76 76 75 76 76 76 75 75 75 75 75 75 75 75 76 76 75 76 75 75 75 75 75 75 74 74 74 73 73
62 62 63 58 60 55 55 53 60 58 59 59 61 60 60 57 57 58 60 63 59 57 60 60 63 62 62 61 62 61 60 62 62 63 62 62 61 61 60 60 60 61 63 66 68 71 74 74 74 75 76 76 76 76 75 75 75 75 75 75 76 75 75 76 76 76 76 76 76 76 75 76 76 76 76 75 75 76 76 75 75 75 76 76 75 76 75 75 74 75 75 75 75 74 74 73 73
61 66 63 60 57 58 59 56 57 58 57 60 58 59 58 61 60 57 57 60 61 65 66 62 61 61 58 59 60 59 60 62 62 62 62 62 63 62 61 61 61 62 63 64 67 68 73 73 74 76 77 76 76 75 76 76 75 75 76 76 76 76 76 76 75 75 75 75 75 75 76 76 76 76 75 76 76 76 76 76 75 74 75 75 75 75 74 74 75 75 75 75 75 74 73 73 74
63 69 64 58 55 55 57 54 58 61 57 61 59 59 58 58 58 57 62 60 59 61 61 60 61 61 59 59 59 59 61 62 62 62 63 64 64 62 61 62 62 62 64 66 66 69 71 72 73 76 76 75 74 74 75 76 76 75 76 76 76 75 75 76 75 75 75 75 75 75 75 75 75 74 76 75 76 77 76 75 76 75 75 76 76 75 74 74 75 75 75 74 74 74 74 74 74
64 65 61 58 57 54 56 63 53 60 58 60 60 58 57 57 60 60 61 61 58 58 64 60 59 64 59 59 60 60 61 62 63 62 63 65 65 63 63 63 62 62 63 66 68 69 70 73 73 72 75 75 73 72 73 75 76 76 76 76 75 75 76 76 75 75 75 75 75 76 75 76 76 75 74 74 76 75 75 76 76 75 76 76 75 75 74 74 75 76 75 74 74 73 73 74 74
64 63 60 55 58 59 58 63 51 55 57 57 58 58 57 57 58 58 60 57 58 57 58 58 59 63 60 60 60 61 62 62 61 61 63 64 65 63 62 62 61 61 63 65 68 69 69 73 74 74 74 76 74 73 74 74 76 76 77 76 76 76 75 75 75 76 76 76 75 76 76 76 76 76 75 75 75 75 76 76 76 76 76 76 76 75 75 75 76 76 75 75 74 74 74 74 74
62 61 59 57 63 60 60 53 60 58 62 59 57 57 55 56 56 57 59 56 56 56 57 58 59 61 60 60 60 61 61 61 61 61 62 63 64 64 63 63 62 61 62 65 67 69 71 71 73 72 73 74 74 73 72 73 75 76 76 75 75 76 76 77 76 75 75 77 76 75 76 75 76 76 76 75 75 74 74 75 75 75 75 75 74 75 75 75 76 76 76 75 74 74 74 75 75
59 60 57 59 63 57 53 54 53 57 65 62 56 56 55 55 56 55 55 55 55 56 56 57 59 60 59 59 59 59 59 60 60 61 61 63 63 63 63 62 62 63 61 64 66 68 70 68 72 73 74 74 74 73 71 72 74 74 75 75 74 74 76 77 76 75 76 76 76 77 74 75 76 75 76 77 75 73 74 75 75 74 74 74 74 74 75 75 75 76 76 75 74 74 75 74 73
54 58 56 61 63 57 54 55 54 53 54 56 57 56 57 55 56 54 60 55 55 56 57 58 58 59 59 59 58 58 58 58 59 60 60 61 61 61 62 62 61 62 61 64 66 67 68 68 70 72 74 74 73 74 73 72 75 73 75 71 73 75 75 76 75 76 76 75 75 74 73 74 72 73 75 75 77 74 74 73 74 75 75 75 74 75 74 75 75 74 74 75 74 75 74 74 74
52 53 54 59 61 62 53 55 55 53 54 55 56 54 62 54 56 55 57 62 54 59 57 58 59 59 59 59 59 59 58 58 57 58 59 59 60 60 60 61 60 60 61 63 66 67 67 67 68 72 73 74 73 73 72 72 74 75 75 72 71 74 72 75 74 74 74 73 72 70 72 73 74 75 76 76 76 76 76 76 76 76 76 75 75 76 76 76 75 75 74 75 75 75 74 75 75
49 52 52 56 60 60 59 56 55 54 53 54 55 54 59 53 56 55 58 63 62 63 57 59 59 59 59 60 59 59 58 58 58 57 58 57 58 59 59 60 59 60 60 62 65 66 67 67 67 69 71 73 74 73 72 72 71 73 74 72 72 74 71 72 71 70 72 73 70 70 68 71 71 74 73 74 75 76 75 75 76 76 75 76 76 75 75 75 75 75 75 74 77 75 74 74 73
51 49 53 53 55 55 58 56 55 53 53 54 55 55 55 54 54 55 62 59 65 65 57 59 59 59 59 60 60 59 59 58 58 57 57 57 56 58 59 60 60 60 61 62 64 65 66 65 68 68 71 72 75 74 73 74 74 74 71 72 72 70 70 69 68 70 72 72 72 72 70 71 70 69 72 73 74 72 72 73 77 76 76 76 76 75 75 76 74 75 75 74 74 75 72 74 76
46 47 50 52 56 56 57 56 54 53 52 54 55 54 54 54 54 55 57 60 56 57 58 59 59 59 59 60 60 60 59 59 58 57 57 56 56 59 60 60 59 61 60 62 63 63 64 65 67 67 71 73 71 74 72 72 71 70 70 69 70 70 70 68 69 71 71 71 72 73 73 69 69 70 71 73 72 73 74 73 69 72 74 76 74 75 76 73 73 74 75 73 74 74 75 75 74
42 43 46 49 52 55 55 55 54 53 52 53 53 53 55 55 59 53 55 55 57 58 59 59 59 59 59 59 60 60 60 59 58 57 55 56 57 59 59 59 59 59 60 61 60 62 62 65 64 67 70 71 72 69 71 70 70 69 70 70 71 70 68 69 70 68 69 71 70 74 73 73 68 69 71 72 72 75 71 72 75 72 72 72 72 73 75 75 75 74 75 74 73 74 74 73 75
45 42 41 43 49 53 54 53 54 53 52 51 51 57 55 55 58 59 55 62 58 58 58 59 59 58 59 59 59 60 60 58 58 57 55 55 56 59 59 59 59 59 61 59 59 62 64 63 64 68 69 72 71 68 69 71 71 71 69 71 71 70 71 72 70 69 68 69 72 75 75 75 70 69 71 73 73 72 72 74 74 75 75 73 75 75 76 75 79 76 74 75 74 74 74 75 73
42 44 45 44 44 48 52 53 52 53 51 52 51 59 59 56 56 55 61 57 58 58 58 59 59 59 59 59 60 61 61 60 59 57 54 56 56 59 59 60 59 58 59 59 60 62 60 61 63 67 69 71 71 68 71 71 71 69 71 70 68 71 73 69 69 70 70 72 73 75 75 75 75 74 74 74 73 73 74 76 74 76 74 73 74 75 75 74 76 75 77 76 75 74 73 73 74
36 36 37 40 41 43 48 50 51 52 52 51 50 52 57 56 51 55 55 56 58 57 58 58 58 59 60 60 59 61 61 61 60 58 56 58 58 59 59 60 59 58 59 58 61 61 58 60 63 67 69 72 70 68 69 70 70 69 71 70 70 72 71 71 69 71 73 73 74 75 76 76 77 75 77 74 74 75 74 77 73 75 75 74 75 75 76 75 75 75 75 76 74 74 72 71 72
32 36 36 36 35 35 41 47 49 49 50 51 50 48 49 56 53 55 55 55 58 57 57 58 58 59 59 60 60 60 61 61 61 59 58 59 59 59 59 59 60 58 59 60 61 60 58 58 61 64 68 71 71 68 69 68 69 69 70 69 72 72 70 69 70 71 73 72 74 75 75 76 77 77 76 76 76 72 73 74 75 75 76 75 76 76 76 74 75 73 72 72 70 72 70 68 71
32 33 32 29 28 31 37 43 46 48 48 49 53 49 50 52 57 56 57 58 59 61 58 57 58 58 59 59 60 60 60 62 60 60 58 60 59 59 60 60 60 59 59 59 60 60 59 59 61 62 68 69 70 68 68 68 69 68 69 70 71 71 70 70 69 71 71 71 72 73 75 77 78 79 79 77 73 72 74 74 75 76 76 76 76 74 75 75 76 75 74 74 72 72 71 68 68
24 24 23 23 24 28 33 42 45 45 47 48 49 49 50 50 54 53 58 60 59 63 58 57 58 58 58 59 59 59 59 61 61 59 58 59 59 59 59 60 60 59 60 60 61 60 58 60 63 61 66 69 70 70 69 70 69 69 69 70 71 72 69 70 69 68 70 70 72 73 76 77 78 79 78 77 74 74 75 74 75 76 77 76 74 76 76 74 73 74 73 72 74 72 68 68 69
22 21 21 21 24 27 32 40 44 45 46 47 47 53 48 51 52 57 60 58 62 60 60 58 57 58 58 58 59 59 60 60 61 59 60 60 59 59 59 60 60 59 60 59 61 61 60 60 62 61 64 69 69 70 71 72 71 70 70 70 69 71 68 69 69 69 70 71 71 71 75 76 78 78 78 77 77 75 74 73 74 76 76 78 77 76 74 73 73 70 75 73 73 73 66 63 65
17 20 20 22 23 25 28 42 44 45 45 45 46 46 48 52 49 51 59 59 62 61 61 55 59 58 59 59 59 59 60 60 60 61 60 60 59 60 58 63 60 60 61 60 61 61 59 62 61 62 64 67 69 71 73 72 72 73 70 69 72 68 68 67 68 70 70 68 70 75 74 75 77 79 80 77 79 74 75 75 76 75 78 77 78 77 74 74 73 72 73 75 73 72 65 64 64
15 20 21 21 23 24 27 37 42 43 44 47 47 45 53 48 48 53 53 56 59 60 57 57 56 57 59 58 59 59 60 60 60 61 60 60 61 60 60 61 60 60 61 61 62 64 62 65 64 64 65 66 70 73 74 73 73 74 69 69 70 69 70 66 67 67 68 70 68 75 76 75 76 78 79 78 77 74 75 75 77 76 78 78 77 75 74 74 74 74 73 74 72 68 66 66 64
11 18 20 21 20 22 25 32 38 42 43 43 44 45 44 47 49 52 52 52 56 57 56 62 56 56 59 59 58 59 60 60 60 61 61 60 61 61 61 60 60 60 62 62 65 65 65 68 66 66 68 65 70 72 73 70 70 69 66 67 66 68 67 67 69 66 67 66 69 72 75 75 76 78 79 79 78 77 76 77 77 76 77 78 76 75 74 73 75 76 76 75 73 69 67 66 65
14 14 17 19 20 21 24 30 36 42 42 43 43 44 45 47 51 50 55 55 54 53 58 62 62 59 58 58 58 59 60 59 60 61 61 61 61 61 62 62 61 61 64 63 64 66 66 68 67 68 68 67 71 71 71 68 67 67 66 65 64 62 66 66 66 67 66 64 69 71 75 73 76 77 78 78 77 77 76 76 77 76 78 78 76 76 74 76 75 75 75 76 72 68 65 63 62
15 21 17 15 19 19 22 29 33 38 40 41 43 43 44 50 47 53 54 52 50 52 57 60 63 58 59 59 59 59 60 60 60 61 61 61 60 61 61 62 63 61 64 64 66 67 68 68 67 69 69 68 71 71 71 68 69 67 66 65 61 60 62 63 63 65 63 64 71 73 74 73 75 76 77 77 78 78 75 76 77 76 76 77 77 77 78 76 75 77 75 74 74 67 66 63 63
13 17 20 18 16 19 20 27 32 34 36 35 39 43 42 45 45 47 49 50 53 54 57 63 62 61 60 59 59 60 60 61 60 60 61 60 60 61 61 62 62 62 63 64 66 68 67 69 69 71 70 70 71 71 70 68 68 68 65 64 61 59 62 63 61 62 64 63 68 72 73 74 75 75 76 76 76 76 76 78 75 77 75 76 77 76 77 79 77 74 75 74 72 68 66 65 65
14 15 19 20 21 18 17 21 28 34 35 34 38 38 40 43 47 49 48 53 53 53 53 57 64 58 60 59 57 59 61 61 60 61 60 60 61 62 62 63 64 63 65 65 65 68 68 70 71 72 72 71 72 72 72 70 68 69 68 66 64 62 63 64 65 64 64 64 66 71 72 74 75 75 75 75 75 75 76 76 76 76 76 76 75 75 77 78 77 76 74 74 73 68 64 64 65
15 14 14 17 20 21 20 23 29 33 34 34 34 36 38 39 40 46 47 45 48 51 54 61 63 59 59 57 58 58 58 62 61 60 61 61 61 62 63 64 64 63 64 66 66 67 67 69 71 72 72 71 72 73 72 71 70 70 69 68 66 64 64 65 64 62 65 65 65 69 70 73 75 75 75 75 75 76 76 76 76 76 76 76 76 76 76 76 76 75 76 75 74 69 63 64 64
10 11 13 16 17 18 21 22 24 32 32 33 33 34 36 38 38 38 44 48 48 51 53 57 61 56 58 56 58 61 61 62 63 62 60 61 62 63 64 65 64 64 65 66 66 67 69 69 71 73 72 72 71 73 73 71 71 70 69 67 66 64 65 66 66 63 62 64 61 63 68 70 71 74 74 74 75 75 77 76 76 76 77 76 75 75 75 74 75 75 73 73 74 70 69 65 62
11 8 11 15 13 12 17 19 26 28 30 30 32 32 32 36 36 37 39 41 49 54 51 48 54 61 61 58 59 60 59 60 60 62 62 60 62 63 64 65 65 64 65 66 67 68 70 70 72 73 73 72 71 74 73 73 72 71 71 67 66 65 64 66 68 64 60 61 63 63 65 69 72 72 72 74 74 75 75 76 76 76 75 76 76 76 76 73 74 72 72 72 73 74 70 67 65
12 8 8 8 6 8 15 22 25 28 29 28 29 31 32 32 33 36 36 38 42 50 52 50 47 58 57 58 57 61 59 62 61 62 61 61 63 63 65 65 65 63 65 66 66 68 71 72 72 73 73 73 72 74 74 73 73 72 71 69 67 66 63 66 67 67 64 64 62 63 64 66 72 73 73 74 74 75 75 76 76 75 73 73 73 73 73 71 72 74 74 76 77 74 73 69 65
11 8 8 10 7 6 10 21 27 27 27 29 28 29 33 33 33 35 35 36 38 43 48 50 49 53 57 59 57 61 62 62 61 62 63 60 63 63 65 66 66 65 64 65 67 67 70 72 73 74 73 73 73 74 74 73 74 73 72 70 68 66 65 63 65 66 64 65 64 64 66 65 70 73 73 73 75 75 75 75 76 75 73 73 73 71 71 70 72 75 75 77 77 76 73 71 70
12 9 8 10 11 9 6 10 20 26 29 29 30 27 25 30 33 33 35 35 37 39 46 49 50 52 53 56 57 55 60 62 62 61 62 61 63 64 65 66 66 64 65 67 67 67 68 71 73 74 74 73 73 74 75 74 73 74 73 72 70 68 66 65 64 66 68 67 66 68 68 70 69 72 74 74 75 75 75 75 74 74 73 71 71 71 71 71 73 75 77 78 77 77 76 73 71
12 10 8 12 14 14 13 9 13 16 20 26 26 26 23 26 32 32 33 33 35 36 43 51 52 51 56 58 59 55 58 61 61 63 61 62 63 64 65 66 67 66 66 66 66 67 68 70 73 74 74 73 74 74 75 74 73 73 73 73 71 70 68 67 66 68 69 69 69 68 69 70 71 70 72 73 73 74 75 75 73 72 72 72 72 72 72 69 70 71 73 76 76 76 76 74 72
12 11 9 11 18 18 19 13 14 11 10 16 18 24 26 25 30 32 34 35 35 37 38 47 50 50 53 56 53 56 57 62 62 62 62 62 64 65 65 66 67 67 66 66 66 67 69 71 72 74 74 74 74 74 75 74 73 73 73 73 72 72 71 68 68 68 70 71 70 69 70 70 71 69 71 70 72 71 74 74 75 73 72 72 73 73 72 70 70 71 73 75 75 76 76 75 74
12 13 16 11 16 22 14 15 10 7 8 11 13 21 25 27 31 32 28 31 34 37 35 46 50 50 54 57 58 57 57 61 61 63 64 61 63 61 65 67 69 68 67 68 67 66 68 70 73 74 75 75 74 74 75 75 74 73 73 74 73 73 72 71 70 69 71 71 71 70 71 71 71 70 70 69 70 72 73 74 75 73 73 74 75 74 73 74 73 72 74 73 74 74 75 75 74
16 15 17 16 15 16 17 12 14 10 8 5 14 20 23 28 29 33 30 31 33 35 38 37 44 48 50 55 58 61 62 60 61 63 64 64 64 65 66 67 68 68 67 67 67 68 69 70 73 73 74 75 75 75 75 75 74 74 74 74 74 74 73 72 71 69 69 72 72 71 69 68 71 70 68 70 68 70 71 73 75 75 76 76 76 76 75 75 75 73 73 73 73 74 74 74 74
19 17 15 17 19 15 18 13 11 10 13 8 7 17 25 23 29 29 30 31 34 34 34 38 43 47 49 50 54 55 62 62 61 61 62 61 65 67 66 67 68 68 67 67 68 70 71 71 73 74 75 75 75 75 75 74 74 74 74 74 74 74 73 73 72 71 71 72 71 71 70 67 68 70 68 71 73 71 72 73 75 75 75 76 76 76 74 75 76 76 75 74 74 73 74 74 73
21 19 18 17 18 19 14 15 12 12 10 11 15 12 22 26 31 30 33 30 32 33 36 37 38 47 51 52 54 55 56 57 61 61 61 63 67 67 66 67 68 68 69 67 68 70 70 72 74 74 75 75 75 75 75 74 75 74 75 75 75 75 75 74 74 73 72 72 73 71 72 71 69 69 71 71 72 71 72 73 74 75 75 75 76 77 76 74 75 75 75 75 74 73 74 74 74
20 21 19 18 18 16 19 21 20 18 15 16 19 19 16 21 26 26 28 29 31 32 35 34 36 46 52 51 54 54 54 57 58 59 60 64 66 67 66 67 67 68 68 68 70 71 72 72 73 74 75 75 76 76 75 75 75 74 74 74 74 74 74 73 72 73 70 72 73 72 70 70 69 70 70 71 72 73 73 73 73 73 75 75 75 76 75 75 75 75 74 75 75 73 74 75 73
19 19 20 21 19 18 21 16 25 22 17 17 12 14 19 16 17 24 26 27 29 31 33 33 38 41 48 51 52 52 52 55 56 59 60 64 66 67 66 66 67 68 68 69 71 71 71 72 73 74 75 75 75 75 75 75 75 74 74 74 74 74 73 72 72 72 73 72 72 73 71 71 69 67 68 68 72 73 74 74 74 74 73 74 75 74 75 75 76 74 74 75 75 75 74 74 75
20 19 21 19 20 19 21 20 18 20 21 21 19 15 15 20 21 20 26 27 31 34 35 34 35 39 41 43 53 56 51 51 54 57 61 62 65 66 67 66 66 68 70 70 69 70 71 72 73 73 74 74 74 74 74 75 74 73 73 73 74 74 73 72 72 74 74 73 71 72 72 71 70 70 70 72 72 72 73 73 74 73 73 73 74 73 74 75 76 75 73 73 74 75 75 74 75
20 21 20 22 22 21 20 20 24 26 20 21 21 21 20 19 19 15 21 29 31 30 33 33 33 35 36 39 40 47 53 52 54 57 57 60 63 64 65 66 66 67 69 68 68 69 69 71 72 73 74 75 75 74 75 75 74 72 73 74 75 75 75 73 73 74 74 73 72 72 72 69 70 69 70 71 71 72 73 73 72 71 69 71 73 73 73 74 75 75 73 71 71 75 75 75 73
19 17 19 23 23 20 20 19 20 21 24 21 22 17 23 25 23 24 24 24 28 28 29 33 33 33 31 33 37 42 49 53 54 56 57 58 63 63 64 66 65 66 68 68 68 68 69 70 71 72 73 73 73 73 73 74 73 73 74 74 73 74 73 73 73 73 74 74 74 73 72 70 71 70 70 70 71 73 73 72 71 72 69 71 74 73 73 74 75 75 75 74 73 73 74 75 75
17 16 21 24 23 21 20 20 18 17 19 23 21 22 26 15 17 21 23 26 25 27 28 29 30 26 33 34 37 41 43 51 54 52 49 54 61 63 63 65 65 65 66 67 67 68 69 69 70 71 71 72 72 72 74 74 74 73 73 74 74 73 73 73 72 73 73 74 73 73 73 72 69 71 71 70 72 72 72 72 71 71 72 70 73 74 71 72 74 74 75 72 73 74 74 75 75